Flag for Canada Weather past 2 weeks in Fort St. John, British Columbia, Canada

Now
12 °F

Broken clouds.


Feels Like: 2 °F
Forecast: 10 / 18 °F
Wind: 7 mph from North

Location: Fort St John

Current Time: Dec 21, 2014 at 4:17:07 PM

Latest Report: Dec 21, 2014 at 3:00 PM


Visibility: 15 mi

Pressure: 29.63 "Hg

Humidity: 85%

Dew point: 9 °F

Location of Fort St. JohnLocation

Historic Weather in Fort St. John — Graph

°F

Fort St. John temperature yesterday

Maximum temperature yesterday: 19 °F (at 9:00 PM)
Minimum temperature yesterday: 12 °F (at 4:00 AM)
Average temperature yesterday: 16 °F

Past Weeks' High & Low Weather Summary

 TemperatureHumidityPressure
High41 °F (Dec 10, 4:00 AM)93% (Dec 13, 12:00 PM)30.42 "Hg (Dec 13, 12:00 PM)
Low-8 °F (Dec 16, 10:00 AM)57% (Dec 10, 4:00 AM)29.27 "Hg (Dec 9, 5:00 PM)
Average9 °F82%29.85 "Hg
* Reported Dec 6 2:00 PM — Dec 21 2:00 PM, Fort St. John, Weather by CustomWeather, © 2014

Note: Actual official high and low records may vary slightly from our data, if they occured in-between our weather recording intervals... More about our weather records

Advertising

Fort St. John weather history for previous 24 hours

 ConditionsComfort  
Time TempWeatherWind HumidityBarometerVisibility
2:00 PM
Dec 21
12 °FMostly cloudy.7 mph85%29.61 "Hg15 mi
1:00 PM12 °FMostly cloudy.7 mph85%29.60 "Hg15 mi
12:00 PM10 °FOvercast.8 mph92%29.58 "Hg15 mi
11:00 AM12 °FOvercast.16 mph85%29.55 "Hg15 mi
10:00 AM12 °FOvercast.17 mph85%29.52 "Hg15 mi
9:00 AM14 °FOvercast.7 mph92%29.48 "Hg15 mi
8:00 AM16 °FOvercast.2 mph93%29.45 "Hg15 mi
7:00 AM14 °FOvercast.3 mph92%29.44 "Hg15 mi
6:00 AM16 °FPassing clouds.5 mph93%29.41 "Hg15 mi
5:00 AM18 °FPassing clouds.2 mph86%29.39 "Hg15 mi
4:00 AM16 °FPartly cloudy.2 mph93%29.38 "Hg15 mi
3:00 AM19 °FPassing clouds.2 mph86%29.36 "Hg15 mi
2:00 AM18 °FMostly cloudy.No wind93%29.35 "Hg15 mi
1:00 AM19 °FMostly cloudy.3 mph86%29.35 "Hg15 mi
12:00 AM19 °FMostly cloudy.No wind86%29.36 "Hg15 mi
11:00 PM
Dec 20
18 °FPartly cloudy.2 mph86%29.36 "Hg15 mi
10:00 PM19 °FMostly cloudy.6 mph86%29.38 "Hg15 mi
9:00 PM19 °FOvercast.7 mph93%29.38 "Hg15 mi
8:00 PM18 °FOvercast.2 mph93%29.40 "Hg15 mi
7:00 PM16 °FOvercast.No wind93%29.41 "Hg15 mi
6:00 PM16 °FMostly cloudy.6 mph93%29.42 "Hg15 mi
5:00 PM16 °FPartly sunny.7 mph93%29.45 "Hg15 mi
4:00 PM16 °FBroken clouds.7 mph93%29.46 "Hg15 mi
Weather by CustomWeather, © 2014

See weather overviewHow to use our weather pages